Powrót do katalogu

METEOR 2-11 DEB

AktywnyPO
NORAD 40708·DEBRIS·🇷🇺 Russia

Wystrzelony Jul 5, 1984 z Plesetsk Cosmodrome

Loading…

Następne Przeloty (najbliższe 24 godziny)

TLE

ŚwieżeSource: Space-Track

Epoka: Sep 14, 2026, 10:43 UTC

1 40708U 84072K   26257.44653302 -.00000221  00000-0 -16473-3 0  9990
2 40708  82.5108 292.2011 0026645  54.0317 306.3316 13.98542365586518

Śledź METEOR 2-11 DEB w czasie rzeczywistym z AllMySat

Download on the App Store